RPA3545 KEWR-KCMH

Flight info

Callsign RPA3545
Flight time 1h 17m
Altitude 32000
Route ZIMMZ Q42 MIKYG Q480 AIR CLPRR3
Aircraft E75L/M-SDE3GILORVW/S

Departure

Time 2026-05-03 21:54
Airport Newark Liberty International Airport (KEWR)

Arrival

Time 2026-05-03 23:12
Airport John Glenn Columbus International Airport (KCMH)
Time Latitude Longitude Altitude Speed Heading
2026-05-03 21:33 40.69741 -74.17440 20 ft 0 kts 309°
2026-05-03 21:46 40.69736 -74.17431 20 ft 3 kts 311°
2026-05-03 21:46 40.69721 -74.17414 21 ft 3 kts 327°
2026-05-03 21:46 40.69703 -74.17404 23 ft 3 kts 359°
2026-05-03 21:46 40.69689 -74.17410 22 ft 1 kts 40°
2026-05-03 21:47 40.69686 -74.17415 21 ft 0 kts 41°
2026-05-03 21:49 40.69686 -74.17414 21 ft 0 kts 41°
2026-05-03 21:49 40.69691 -74.17408 22 ft 2 kts 41°
2026-05-03 21:49 40.69717 -74.17379 21 ft 7 kts 41°
2026-05-03 21:50 40.69769 -74.17326 21 ft 11 kts 41°
2026-05-03 21:50 40.69774 -74.17247 20 ft 10 kts 134°
2026-05-03 21:50 40.69716 -74.17183 20 ft 12 kts 146°
2026-05-03 21:50 40.69639 -74.17127 22 ft 13 kts 156°
2026-05-03 21:51 40.69599 -74.17087 20 ft 5 kts 89°
2026-05-03 21:51 40.69615 -74.17024 21 ft 9 kts 71°
2026-05-03 21:51 40.69639 -74.16930 20 ft 13 kts 71°
2026-05-03 21:51 40.69676 -74.16791 21 ft 18 kts 71°
2026-05-03 21:52 40.69762 -74.16692 19 ft 18 kts 25°
2026-05-03 21:52 40.69878 -74.16617 19 ft 19 kts 26°
2026-05-03 21:52 40.70000 -74.16541 19 ft 16 kts 26°
2026-05-03 21:52 40.70055 -74.16500 20 ft 0 kts 47°
2026-05-03 21:53 40.70056 -74.16498 20 ft 0 kts 50°
2026-05-03 21:53 40.70061 -74.16488 18 ft 3 kts 63°
2026-05-03 21:53 40.70063 -74.16433 18 ft 10 kts 95°
2026-05-03 21:53 40.70034 -74.16368 17 ft 5 kts 180°
2026-05-03 21:54 40.69920 -74.16435 17 ft 48 kts 208°
2026-05-03 21:54 40.69404 -74.16759 21 ft 117 kts 207°
2026-05-03 21:54 40.68482 -74.17312 145 ft 166 kts 210°
2026-05-03 21:54 40.67290 -74.17858 713 ft 199 kts 194°
2026-05-03 21:55 40.65858 -74.17796 1524 ft 209 kts 178°
2026-05-03 21:55 40.64376 -74.17535 2211 ft 219 kts 176°
2026-05-03 21:55 40.62935 -74.17303 3273 ft 200 kts 182°
2026-05-03 21:55 40.61502 -74.17521 3594 ft 215 kts 205°
2026-05-03 21:56 40.60347 -74.18633 4186 ft 203 kts 242°
2026-05-03 21:56 40.59674 -74.20281 4851 ft 210 kts 252°
2026-05-03 21:56 40.59341 -74.22185 5295 ft 223 kts 268°
2026-05-03 21:56 40.59237 -74.24284 5836 ft 237 kts 270°
2026-05-03 21:57 40.59142 -74.26504 6441 ft 247 kts 270°
2026-05-03 21:57 40.59044 -74.28767 7191 ft 249 kts 270°
2026-05-03 21:57 40.58930 -74.31055 7921 ft 251 kts 270°
2026-05-03 21:57 40.58820 -74.33358 8624 ft 253 kts 271°
2026-05-03 21:58 40.58722 -74.35683 9320 ft 256 kts 271°
2026-05-03 21:58 40.58619 -74.38042 9943 ft 260 kts 271°
2026-05-03 21:58 40.58537 -74.40433 10292 ft 273 kts 272°
2026-05-03 21:58 40.58475 -74.42979 10718 ft 284 kts 272°
2026-05-03 21:59 40.58413 -74.45599 11263 ft 289 kts 272°
2026-05-03 21:59 40.58362 -74.48265 11881 ft 293 kts 272°
2026-05-03 21:59 40.58307 -74.50959 12569 ft 297 kts 272°
2026-05-03 21:59 40.58258 -74.53686 13279 ft 299 kts 272°
2026-05-03 22:00 40.58222 -74.56448 13978 ft 303 kts 273°
2026-05-03 22:00 40.58200 -74.59221 14747 ft 304 kts 273°
2026-05-03 22:00 40.58185 -74.62004 15551 ft 304 kts 273°
2026-05-03 22:00 40.58187 -74.64792 16331 ft 305 kts 274°
2026-05-03 22:01 40.58198 -74.67555 17088 ft 307 kts 274°
2026-05-03 22:01 40.58228 -74.70369 17855 ft 308 kts 275°
2026-05-03 22:01 40.58369 -74.73185 18505 ft 308 kts 284°
2026-05-03 22:01 40.59164 -74.75781 19142 ft 307 kts 302°
2026-05-03 22:02 40.60412 -74.78074 19763 ft 309 kts 305°
2026-05-03 22:02 40.61687 -74.80365 20344 ft 312 kts 305°
2026-05-03 22:02 40.62982 -74.82659 20949 ft 313 kts 306°
2026-05-03 22:02 40.64296 -74.84957 21552 ft 315 kts 306°
2026-05-03 22:03 40.65607 -74.87234 22137 ft 317 kts 306°
2026-05-03 22:03 40.66947 -74.89552 22729 ft 320 kts 306°
2026-05-03 22:03 40.68303 -74.91888 23324 ft 322 kts 306°
2026-05-03 22:03 40.69669 -74.94235 23833 ft 324 kts 306°
2026-05-03 22:04 40.71052 -74.96601 24288 ft 327 kts 306°
2026-05-03 22:04 40.72449 -74.98986 24745 ft 330 kts 306°
2026-05-03 22:04 40.73860 -75.01391 25206 ft 333 kts 306°
2026-05-03 22:04 40.75285 -75.03813 25651 ft 336 kts 306°
2026-05-03 22:05 40.76703 -75.06223 26054 ft 339 kts 306°
2026-05-03 22:05 40.78157 -75.08709 26403 ft 343 kts 303°
2026-05-03 22:05 40.79246 -75.11506 26794 ft 345 kts 288°
2026-05-03 22:05 40.79669 -75.14622 27211 ft 349 kts 274°
2026-05-03 22:06 40.79444 -75.17832 27636 ft 354 kts 265°
2026-05-03 22:06 40.79051 -75.21052 28039 ft 357 kts 264°
2026-05-03 22:06 40.78619 -75.24288 28442 ft 359 kts 263°
2026-05-03 22:06 40.78160 -75.27541 28832 ft 362 kts 263°
2026-05-03 22:07 40.77686 -75.30768 29211 ft 364 kts 262°
2026-05-03 22:07 40.77191 -75.34056 29587 ft 367 kts 262°
2026-05-03 22:07 40.76654 -75.37355 29945 ft 371 kts 257°
2026-05-03 22:07 40.75657 -75.40534 30252 ft 377 kts 249°
2026-05-03 22:08 40.74512 -75.43659 30513 ft 381 kts 249°
2026-05-03 22:08 40.73349 -75.46811 30772 ft 383 kts 248°
2026-05-03 22:08 40.72177 -75.49978 31048 ft 385 kts 248°
2026-05-03 22:08 40.70998 -75.53153 31317 ft 387 kts 248°
2026-05-03 22:09 40.69827 -75.56299 31569 ft 388 kts 248°
2026-05-03 22:09 40.68633 -75.59497 31819 ft 390 kts 248°
2026-05-03 22:09 40.67433 -75.62709 32013 ft 394 kts 248°
2026-05-03 22:10 40.64967 -75.69290 32028 ft 406 kts 248°
2026-05-03 22:10 40.62439 -75.76012 32018 ft 413 kts 248°
2026-05-03 22:11 40.59882 -75.82790 31962 ft 415 kts 248°
2026-05-03 22:11 40.57320 -75.89531 31967 ft 415 kts 247°
2026-05-03 22:12 40.54734 -75.96323 31964 ft 415 kts 247°
2026-05-03 22:12 40.52143 -76.03109 31970 ft 415 kts 247°
2026-05-03 22:13 40.49552 -76.09882 31972 ft 412 kts 247°
2026-05-03 22:13 40.46994 -76.16552 31969 ft 413 kts 247°
2026-05-03 22:14 40.44407 -76.23287 31972 ft 413 kts 247°
2026-05-03 22:14 40.41816 -76.30014 31975 ft 413 kts 247°
2026-05-03 22:15 40.39220 -76.36740 31965 ft 413 kts 247°
2026-05-03 22:15 40.36640 -76.43409 31963 ft 413 kts 247°
2026-05-03 22:16 40.34039 -76.50116 31965 ft 413 kts 247°
2026-05-03 22:16 40.31387 -76.56746 31975 ft 410 kts 247°
2026-05-03 22:17 40.28730 -76.63363 31981 ft 410 kts 247°
2026-05-03 22:17 40.26093 -76.69925 31981 ft 410 kts 247°
2026-05-03 22:18 40.23432 -76.76534 31983 ft 410 kts 247°
2026-05-03 22:18 40.20769 -76.83137 31992 ft 410 kts 247°
2026-05-03 22:19 40.18102 -76.89731 32003 ft 409 kts 247°
2026-05-03 22:19 40.15474 -76.96212 32011 ft 400 kts 248°
2026-05-03 22:20 40.12866 -77.02642 32015 ft 401 kts 248°
2026-05-03 22:20 40.10253 -77.09067 32013 ft 400 kts 248°
2026-05-03 22:21 40.07634 -77.15493 32009 ft 401 kts 248°
2026-05-03 22:21 40.05026 -77.21876 32012 ft 401 kts 248°
2026-05-03 22:22 40.02401 -77.28283 32030 ft 400 kts 248°
2026-05-03 22:22 39.99779 -77.34674 32021 ft 400 kts 248°
2026-05-03 22:23 39.97152 -77.41065 32024 ft 400 kts 248°
2026-05-03 22:23 39.96127 -77.44336 32039 ft 392 kts 259°
2026-05-03 22:23 39.95763 -77.47812 32053 ft 386 kts 272°
2026-05-03 22:24 39.95910 -77.54811 32032 ft 386 kts 274°
2026-05-03 22:24 39.96100 -77.61791 32021 ft 384 kts 274°
2026-05-03 22:25 39.96307 -77.68743 32022 ft 384 kts 274°
2026-05-03 22:25 39.96517 -77.75645 32025 ft 384 kts 274°
2026-05-03 22:26 39.96730 -77.82594 32041 ft 384 kts 274°
2026-05-03 22:26 39.96941 -77.89551 32041 ft 384 kts 274°
2026-05-03 22:27 39.97148 -77.96489 32033 ft 382 kts 274°
2026-05-03 22:27 39.97338 -78.03364 32029 ft 382 kts 274°
2026-05-03 22:28 39.97527 -78.10300 32028 ft 383 kts 274°
2026-05-03 22:28 39.97713 -78.17247 32031 ft 383 kts 274°
2026-05-03 22:29 39.97894 -78.24175 32045 ft 383 kts 274°
2026-05-03 22:29 39.98071 -78.31074 32031 ft 383 kts 274°
2026-05-03 22:30 39.98245 -78.38010 32038 ft 383 kts 273°
2026-05-03 22:30 39.98413 -78.44935 32035 ft 382 kts 274°
2026-05-03 22:31 39.98578 -78.51853 32043 ft 383 kts 274°
2026-05-03 22:31 39.98739 -78.58800 32041 ft 383 kts 274°
2026-05-03 22:32 39.98895 -78.65710 32036 ft 384 kts 274°
2026-05-03 22:32 39.99049 -78.72667 32041 ft 385 kts 274°
2026-05-03 22:33 39.99196 -78.79646 32045 ft 385 kts 274°
2026-05-03 22:33 39.99340 -78.86634 32059 ft 386 kts 274°
2026-05-03 22:34 39.99483 -78.93566 32048 ft 385 kts 274°
2026-05-03 22:34 39.99622 -79.00545 32054 ft 385 kts 274°
2026-05-03 22:35 39.99756 -79.07525 32063 ft 386 kts 274°
2026-05-03 22:35 39.99887 -79.14486 32051 ft 387 kts 274°
2026-05-03 22:36 40.00012 -79.21495 32053 ft 387 kts 274°
2026-05-03 22:36 40.00137 -79.28503 32053 ft 386 kts 274°
2026-05-03 22:37 40.00257 -79.35501 32056 ft 387 kts 274°
2026-05-03 22:37 40.00370 -79.42520 32046 ft 386 kts 273°
2026-05-03 22:38 40.00468 -79.49490 32046 ft 387 kts 273°
2026-05-03 22:38 40.00564 -79.56506 32053 ft 387 kts 273°
2026-05-03 22:39 40.00661 -79.63516 32035 ft 386 kts 273°
2026-05-03 22:39 40.00753 -79.70508 32056 ft 386 kts 273°
2026-05-03 22:40 40.00840 -79.77464 32051 ft 386 kts 273°
2026-05-03 22:40 40.00926 -79.84456 32050 ft 385 kts 273°
2026-05-03 22:41 40.01007 -79.91446 32054 ft 385 kts 273°
2026-05-03 22:41 40.01083 -79.98433 32055 ft 385 kts 273°
2026-05-03 22:42 40.01155 -80.05372 32056 ft 385 kts 273°
2026-05-03 22:42 40.01223 -80.12360 32057 ft 386 kts 273°
2026-05-03 22:43 40.01287 -80.19351 32055 ft 385 kts 273°
2026-05-03 22:43 40.01345 -80.26336 32049 ft 385 kts 273°
2026-05-03 22:44 40.01399 -80.33310 32052 ft 385 kts 273°
2026-05-03 22:44 40.01451 -80.40239 32063 ft 384 kts 273°
2026-05-03 22:45 40.01544 -80.47212 32044 ft 385 kts 273°
2026-05-03 22:45 40.01622 -80.54189 32030 ft 384 kts 273°
2026-05-03 22:46 40.01677 -80.61159 32041 ft 384 kts 273°
2026-05-03 22:46 40.01720 -80.68081 32043 ft 384 kts 273°
2026-05-03 22:47 40.01754 -80.75051 32035 ft 384 kts 272°
2026-05-03 22:47 40.01533 -80.82007 32057 ft 389 kts 261°
2026-05-03 22:47 40.00673 -80.85371 31836 ft 389 kts 255°
2026-05-03 22:48 39.99715 -80.88601 31572 ft 374 kts 254°
2026-05-03 22:48 39.98801 -80.91664 31158 ft 363 kts 254°
2026-05-03 22:48 39.97892 -80.94700 30672 ft 355 kts 254°
2026-05-03 22:48 39.96997 -80.97671 30176 ft 350 kts 254°
2026-05-03 22:49 39.96113 -81.00597 29701 ft 344 kts 254°
2026-05-03 22:49 39.95237 -81.03495 29268 ft 345 kts 254°
2026-05-03 22:49 39.94352 -81.06416 28816 ft 348 kts 253°
2026-05-03 22:49 39.93458 -81.09364 28339 ft 352 kts 253°
2026-05-03 22:50 39.92552 -81.12340 27884 ft 354 kts 253°
2026-05-03 22:50 39.91640 -81.15332 27383 ft 355 kts 253°
2026-05-03 22:50 39.90743 -81.18267 26948 ft 352 kts 253°
2026-05-03 22:50 39.89837 -81.21229 26449 ft 352 kts 253°
2026-05-03 22:51 39.88935 -81.24175 26008 ft 349 kts 253°
2026-05-03 22:51 39.88037 -81.27105 25524 ft 348 kts 252°
2026-05-03 22:51 39.87142 -81.30015 25074 ft 346 kts 252°
2026-05-03 22:51 39.86247 -81.32928 24629 ft 346 kts 252°
2026-05-03 22:52 39.85355 -81.35829 24160 ft 344 kts 252°
2026-05-03 22:52 39.84466 -81.38715 23707 ft 343 kts 252°
2026-05-03 22:52 39.83582 -81.41585 23228 ft 340 kts 252°
2026-05-03 22:52 39.82717 -81.44390 22804 ft 338 kts 252°
2026-05-03 22:53 39.81841 -81.47229 22344 ft 338 kts 252°
2026-05-03 22:53 39.80965 -81.50064 21951 ft 338 kts 252°
2026-05-03 22:53 39.80125 -81.52915 21542 ft 337 kts 253°
2026-05-03 22:53 39.79295 -81.55764 21173 ft 336 kts 253°
2026-05-03 22:54 39.78465 -81.58608 20784 ft 336 kts 253°
2026-05-03 22:54 39.77634 -81.61443 20420 ft 336 kts 253°
2026-05-03 22:54 39.76803 -81.64276 20049 ft 335 kts 253°
2026-05-03 22:54 39.75973 -81.67102 19673 ft 332 kts 253°
2026-05-03 22:55 39.75151 -81.69887 19313 ft 330 kts 253°
2026-05-03 22:55 39.74344 -81.72628 18946 ft 327 kts 253°
2026-05-03 22:55 39.73541 -81.75348 18561 ft 318 kts 252°
2026-05-03 22:55 39.72760 -81.77985 18229 ft 308 kts 252°
2026-05-03 22:56 39.72004 -81.80543 17877 ft 299 kts 252°
2026-05-03 22:56 39.71264 -81.83035 17537 ft 291 kts 252°
2026-05-03 22:56 39.70547 -81.85452 17215 ft 283 kts 252°
2026-05-03 22:56 39.69847 -81.87811 16908 ft 276 kts 252°
2026-05-03 22:57 39.69162 -81.90115 16600 ft 270 kts 252°
2026-05-03 22:57 39.68500 -81.92336 16308 ft 265 kts 252°
2026-05-03 22:57 39.67844 -81.94546 16030 ft 260 kts 252°
2026-05-03 22:57 39.67201 -81.96708 15785 ft 254 kts 252°
2026-05-03 22:58 39.66571 -81.98828 15543 ft 251 kts 252°
2026-05-03 22:58 39.65941 -82.00949 15304 ft 253 kts 252°
2026-05-03 22:58 39.65304 -82.03089 15068 ft 256 kts 252°
2026-05-03 22:58 39.64659 -82.05252 14833 ft 258 kts 252°
2026-05-03 22:59 39.64009 -82.07426 14576 ft 259 kts 252°
2026-05-03 22:59 39.63410 -82.09621 14320 ft 257 kts 260°
2026-05-03 22:59 39.63291 -82.11877 14075 ft 254 kts 276°
2026-05-03 22:59 39.63663 -82.14107 13828 ft 254 kts 290°
2026-05-03 23:00 39.64508 -82.16090 13803 ft 248 kts 303°
2026-05-03 23:00 39.65502 -82.17928 13770 ft 254 kts 303°
2026-05-03 23:00 39.66573 -82.19805 13364 ft 261 kts 304°
2026-05-03 23:00 39.67654 -82.21688 13003 ft 260 kts 304°
2026-05-03 23:01 39.68726 -82.23570 12635 ft 259 kts 304°
2026-05-03 23:01 39.69779 -82.25455 12282 ft 257 kts 303°
2026-05-03 23:01 39.70804 -82.27308 11945 ft 255 kts 303°
2026-05-03 23:01 39.71838 -82.29165 11611 ft 253 kts 303°
2026-05-03 23:02 39.72870 -82.31010 11269 ft 252 kts 303°
2026-05-03 23:02 39.73986 -82.32755 10928 ft 253 kts 315°
2026-05-03 23:02 39.75315 -82.34250 10582 ft 253 kts 316°
2026-05-03 23:02 39.76663 -82.35719 10254 ft 253 kts 316°
2026-05-03 23:03 39.78008 -82.37186 9918 ft 253 kts 316°
2026-05-03 23:03 39.79354 -82.38652 9544 ft 252 kts 316°
2026-05-03 23:03 39.80672 -82.40087 9251 ft 249 kts 316°
2026-05-03 23:03 39.82003 -82.41534 8894 ft 249 kts 316°
2026-05-03 23:04 39.83329 -82.42972 8583 ft 247 kts 316°
2026-05-03 23:04 39.84644 -82.44399 8258 ft 246 kts 315°
2026-05-03 23:04 39.85957 -82.45828 7926 ft 246 kts 315°
2026-05-03 23:04 39.87274 -82.47259 7590 ft 246 kts 315°
2026-05-03 23:05 39.88591 -82.48691 7263 ft 246 kts 315°
2026-05-03 23:05 39.89906 -82.50119 6964 ft 246 kts 315°
2026-05-03 23:05 39.91220 -82.51550 6641 ft 246 kts 315°
2026-05-03 23:05 39.92516 -82.52961 6308 ft 246 kts 315°
2026-05-03 23:06 39.93827 -82.54389 5981 ft 245 kts 315°
2026-05-03 23:06 39.95128 -82.55809 5656 ft 243 kts 314°
2026-05-03 23:06 39.96391 -82.57235 5315 ft 236 kts 306°
2026-05-03 23:06 39.97206 -82.59016 4978 ft 225 kts 290°
2026-05-03 23:07 39.97653 -82.60914 4671 ft 213 kts 272°
2026-05-03 23:07 39.97704 -82.62776 4412 ft 199 kts 268°
2026-05-03 23:07 39.97826 -82.64539 4131 ft 192 kts 273°
2026-05-03 23:07 39.97957 -82.66211 3883 ft 185 kts 270°
2026-05-03 23:08 39.98041 -82.67842 3617 ft 177 kts 270°
2026-05-03 23:08 39.98124 -82.69433 3398 ft 174 kts 270°
2026-05-03 23:08 39.98225 -82.71011 3202 ft 176 kts 270°
2026-05-03 23:08 39.98319 -82.72611 2976 ft 175 kts 270°
2026-05-03 23:09 39.98410 -82.74162 2735 ft 170 kts 270°
2026-05-03 23:09 39.98498 -82.75680 2509 ft 163 kts 269°
2026-05-03 23:09 39.98578 -82.77073 2293 ft 148 kts 269°
2026-05-03 23:09 39.98645 -82.78363 2256 ft 145 kts 269°
2026-05-03 23:10 39.98723 -82.79671 2024 ft 143 kts 270°
2026-05-03 23:10 39.98801 -82.80948 1827 ft 140 kts 270°
2026-05-03 23:10 39.98874 -82.82227 1630 ft 143 kts 270°
2026-05-03 23:10 39.98950 -82.83543 1419 ft 147 kts 272°
2026-05-03 23:11 39.99002 -82.84857 1227 ft 145 kts 275°
2026-05-03 23:11 39.99098 -82.86176 1041 ft 145 kts 271°
2026-05-03 23:11 39.99171 -82.87469 850 ft 137 kts 273°
2026-05-03 23:11 39.99231 -82.88557 822 ft 101 kts 273°
2026-05-03 23:12 39.99272 -82.89262 819 ft 59 kts 274°
2026-05-03 23:12 39.99395 -82.89666 821 ft 27 kts 306°
2026-05-03 23:12 39.99465 -82.89659 820 ft 9 kts 62°
2026-05-03 23:12 39.99465 -82.89557 822 ft 13 kts 92°
2026-05-03 23:13 39.99458 -82.89418 824 ft 17 kts 94°
2026-05-03 23:13 39.99449 -82.89256 822 ft 20 kts 94°
2026-05-03 23:13 39.99438 -82.89063 819 ft 22 kts 94°
2026-05-03 23:13 39.99426 -82.88853 819 ft 24 kts 95°
2026-05-03 23:14 39.99413 -82.88625 816 ft 27 kts 93°
2026-05-03 23:14 39.99401 -82.88414 818 ft 18 kts 95°
2026-05-03 23:14 39.99471 -82.88322 818 ft 15 kts 13°
2026-05-03 23:14 39.99503 -82.88219 816 ft 14 kts 95°
2026-05-03 23:15 39.99495 -82.88085 816 ft 15 kts 94°
2026-05-03 23:15 39.99489 -82.87952 821 ft 12 kts 85°
2026-05-03 23:15 39.99526 -82.87925 821 ft 8 kts
2026-05-03 23:15 39.99600 -82.87919 821 ft 13 kts
2026-05-03 23:16 39.99704 -82.87909 821 ft 16 kts
2026-05-03 23:16 39.99773 -82.87922 821 ft 7 kts 302°
2026-05-03 23:16 39.99785 -82.87981 820 ft 5 kts 281°
2026-05-03 23:16 39.99787 -82.87998 820 ft 0 kts 282°